Regional Weather Roundup
Issued by NWS Green Bay, WI

Home | Current Version | Previous Version | Graphics & Text | Print | Product List | Glossary Off
Versions: 1 2 3 4 5 6 7 8 9 10 11 12 13 14 15 16 17 18 19 20 21 22 23 24 25 26 27 28 29 30 31 32 33 34 35 36 37 38 39 40 41 42 43 44 45 46 47 48 49 50

742
ASUS43 KGRB 270900
RWRGRB

NORTH-CENTRAL AND NORTHEAST WISCONSIN REGIONAL WEATHER ROUNDUP
NATIONAL WEATHER SERVICE GREEN BAY WI
400 AM CDT FRI MAY 27 2016

WIZ005-009-010>012-018-019-271000-
NORTH CENTRAL WISCONSIN

CITY           SKY/WX    TMP DP  RH WIND       PRES   REMARKS
IRONWOOD       CLOUDY    52  52 100 CALM      29.85S
MANITOWISH WTR NOT AVBL
ARBOR VITAE    NOT AVBL
EAGLE RIVER    NOT AVBL
LAND O LAKES   NOT AVBL
RHINELANDER    FOG       52  51  97 CALM      29.90S VSB 1/4
PHILLIPS       NOT AVBL
ANTIGO         NOT AVBL
TOMAHAWK       NOT AVBL
MERRILL        NOT AVBL
$$

WIZ013-073-271000-
NORTHEAST WISCONSIN

CITY           SKY/WX    TMP DP  RH WIND       PRES   REMARKS
IRON MOUNTAIN  FOG       59  58  96 CALM      29.87R VSB 1/4
MARINETTE      FOG       53  52  96 CALM      29.89R VSB 1
$$

WIZ017-030-035>037-045-271000-
CENTRAL WISCONSIN

CITY           SKY/WX    TMP DP  RH WIND       PRES   REMARKS
MEDFORD        NOT AVBL
WAUSAU         CLOUDY    59  56  89 CALM      29.87F
MOSINEE        NOT AVBL
MARSHFIELD     CLOUDY    59  56  89 CALM      29.87F
WISC RAPIDS    PTCLDY    58  56  93 CALM      29.89S
STEVENS POINT  NOT AVBL
WAUPACA        NOT AVBL
SHAWANO        NOT AVBL
CLINTONVILLE   NOT AVBL
WAUTOMA        PTCLDY    58  57  97 E3        29.88
$$

WIZ038-039-048-051-271000-
FOX VALLEY

CITY           SKY/WX    TMP DP  RH WIND       PRES   REMARKS
NWS GREEN BAY  CLOUDY    60  57  89 CALM      29.88R
APPLETON       NOT AVBL
OSHKOSH        MOCLDY    61  57  87 CALM      29.88R
FOND DU LAC    CLOUDY    60  58  92 CALM      29.88R
$$

WIZ022-050-052-271000-
EAST CENTRAL WISCONSIN

CITY           SKY/WX    TMP DP  RH WIND       PRES   REMARKS
EPHRAIM        NOT AVBL
STURGEON BAY   NOT AVBL
MANITOWOC      NOT AVBL
SHEBOYGAN      CLOUDY    59  57  93 CALM      29.88S
$$

LMZ563-521-522-541>543-271000-
LAKESHORE

STATION/POSITION TIME  TEMP    WIND        PRES    VSBY  WAVE
                       AIR SEA DIR/SP/G                  HT/PER
                 (UTC) (F)     (DEG/KT/KT) (MB)    (MI)  (FT/S)
SHEBOYGAN LKSHOR 0800   58     190/  6/  6 1012.0R
KEWAUNEE LKSHORE 0800           CALM  /  1 1011.1R
ALGOMA MARINA    0817           70/  7/  7   N/A
NORTHPORT PIER   0800   51     140/  5/  8 1011.9S
N MID LAKE BUOY  0750   49 45  160/  8/ 10 1011.8S         1/ 4
SISTER BAY LKSHO 0805   53        CALM       N/A
CHAMBERS ISLAND  0800   55        CALM     1011.9R
MENOMINEE LKSHOR 0800   60        CALM     1010.5R
$$




USA.gov is the U.S. government's official web portal to all federal, state and local government web resources and services.